Regional Weather Roundup
Issued by NWS Grand Forks, ND

Home | Current Version | Previous Version | Graphics & Text | Print | Product List | Glossary On
Versions: 1 2 3 4 5 6 7 8 9 10 11 12 13 14 15 16 17 18 19 20 21 22 23 24 25 26 27 28 29 30 31 32 33 34 35 36 37 38 39 40 41 42 43 44 45 46 47 48 49 50
000
ASUS43 KFGF 221910
RWRFGF
PRAIRIE TO PINES  WEATHER ROUNDUP
NATIONAL WEATHER SERVICE EASTERN NORTH DAKOTA/GRAND FORKS ND
200 PM CDT FRI JUL 22 2016

 **SATELLITE DATA USED TO AUGMENT SKY COVER AT AUTOMATED STATIONS**
 *****  WEATHER ACROSS EASTERN NORTH DAKOTA  *****

CITY           SKY/WX    TMP DP  RH WIND       PRES   REMARKS
GRAND FORKS    MOSUNNY   85  63  47 NE8       30.01F
GRAND FRKS AFB SUNNY     85  62  46 NE7       30.03F
GRAND FRKS NWS   N/A     84 N/A N/A NE9         N/A
DEVILS LAKE    SUNNY     82  60  47 NE8       30.06F
FARGO          SUNNY     91  67  44 NW6       30.01R HX  94
WAHPETON ARPT  CLEAR     90  55  31 S6        30.03R
$$

 ***** WEATHER ACROSS CENTRAL AND WESTERN NORTH DAKOTA  *****

CITY           SKY/WX    TMP DP  RH WIND       PRES   REMARKS
BISMARCK       CLOUDY    87  74  64 E12       30.02R HX  95
MINOT          CLOUDY    88  59  37 NE8       30.04F
JAMESTOWN      CLOUDY    81  72  74 E8        30.02R
MINOT AFB      CLOUDY    83  60  45 E12       30.04S
GARRISON         N/A     81  59  47 E10       30.07R
WILLISTON      CLOUDY    91  56  30 SE17G25   30.00F
DICKINSON      SUNNY     85  72  65 E17G26    30.01F HX  91
HETTINGER      SUNNY     92  71  50 E16G23    30.02F HX  98
$$

 *****  OTHER AIRPORT OBSERVATIONS IN OUR AREA  *****

CITY           SKY/WX    TMP DP  RH WIND       PRES   REMARKS
WALHALLA       NOT AVBL
GRAFTON AIRPOR FAIR      82  64  54 N9        30.05F
VALLEY CITY AR   N/A     84  72  65 SE7       30.06R
CANDO          NOT AVBL
CAVALIER APRT  FAIR      82  63  51 NW8       30.03F
GWINNER        FAIR      88  73  62 S3        30.05R HX  96
ROLLA            N/A     77  59  53 NE7       30.08F
 ***** THE ABOVE OBSERVATIONS ARE NON NWS ARE NOT QUALITY
       CONTROLLED AND MAY MIS-REPORT RAIN FOR SNOW...
$$

  *****  WEATHER ACROSS NORTHERN MINNESOTA  *****

CITY           SKY/WX    TMP DP  RH WIND       PRES   REMARKS
FLAG ISLAND    SUNNY     81  55  41 NW15      29.98S
WARROAD        SUNNY     82  63  51 W13       30.02S
ROSEAU         SUNNY     82  63  51 NW10G17   30.02F
HALLOCK        SUNNY     82  61  47 NW9       30.02F
THF RVR FALLS  SUNNY     82  62  50 NW8       30.05F
BAUDETTE       SUNNY     83  58  42 NW15      30.02R
WASKISH        SUNNY     82  66  57 SW9       30.02S
CROOKSTON      SUNNY     82  64  54 N6        30.03F
STEPHEN NDAWN    N/A     82  63  51 NW7         N/A
GREENBUSH NDAW   N/A     82  63  51 NW9         N/A
$$
  *****  WEATHER ACROSS CENTRAL AND WEST MINNESOTA  *****

CITY           SKY/WX    TMP DP  RH WIND       PRES   REMARKS
FOSSTON        SUNNY     84  63  48 NW7       30.05F
BEMIDJI        SUNNY     88  57  35 NW8G18    30.04S
PARK RAPIDS    SUNNY     90  65  43 NW9       30.03F HX  92
ELBOW LAKE     FAIR      87  67  50 SW6       30.04S HX  90
WADENA         SUNNY     86  63  45 S6        30.03F
DETROIT LAKES  SUNNY     86  64  48 W6        30.06R
MOORHEAD       SUNNY     90  64  43 W6        30.02S HX  91
FERGUS FALLS   SUNNY     88  64  45 S5        30.03S
MORRIS MN      SUNNY     91  63  38 SE7       30.01F HX  92
STAPLES        SUNNY     90  61  37 S3        30.03F
$$
  *****  WEATHER ELSEWHERE ACROSS MINNESOTA  *****

CITY           SKY/WX    TMP DP  RH WIND       PRES   REMARKS
DULUTH         MOSUNNY   88  66  48 NW15      30.02S HX  90
INTRNTL FALLS  SUNNY     83  58  42 NW10      30.00S
ELY            SUNNY     84  52  32 NW14      30.00S
CLOQUET        MOSUNNY   90  63  40 W6        30.02F HX  90
WHEATON        SUNNY     90  70  51 SE5       30.04R HX  95
BRAINERD       SUNNY     89  65  44 W7        30.03F HX  91
HIBBING        SUNNY     86  60  41 NW14G22   30.01S
ALEXANDRIA     SUNNY     88  62  41 VRB6      30.05F
SAINT CLOUD    SUNNY     89  61  38 W5        30.02F
MINNEAPOLIS    SUNNY     95  42  16 SE7       30.00F HX  91
$$

  *****  WEATHER ACROSS SOUTH DAKOTA  *****

CITY           SKY/WX    TMP DP  RH WIND       PRES   REMARKS
SIOUX FALLS    MOSUNNY   92  77  61 E10       29.98F HX 105
BROOKINGS      MOSUNNY   89  77  67 E10       30.00F HX 101
WATERTOWN      SUNNY     92  72  51 SE10      30.02F HX  99
HURON          SUNNY     94  75  54 E7G21     29.96F HX 105
SISSETON         N/A     88  70  55 S3        30.03R HX  93
ABERDEEN       MOSUNNY   91  77  63 NE9       30.02R HX 104
MITCHELL       SUNNY     93  79  63 SE10      29.96F HX 110
PIERRE         SUNNY     93  72  50 E9        29.97F HX 101
MOBRIDGE       MOSUNNY   91  75  59 NE21G29   29.98S HX 101
RAPID CITY     CLOUDY   101  55  21 S22G30    30.03F HX  99
$$

  *****  SOME WEATHER IN NEARBY STATES *****

CITY           SKY/WX    TMP DP  RH WIND       PRES   REMARKS
GLASGOW MT     SUNNY     89  59  36 E13       29.94F
GREAT FALLS MT CLOUDY    84  44  24 W5        29.94F
CHEYENNE WY    CLOUDY    87  44  22 CALM      30.27F
SCOTTSBLUFF NE MOSUNNY   94  64  37 SE7       30.11F HX  95
OMAHA NE       MOSUNNY   92  76  59 SE17G24   29.94F HX 104
DES MOINES IA  PTSUNNY   89  74  60 SW15      29.98F HX  98
DAVENPORT IA   CLOUDY    82  73  74 CALM      30.05S
CHICAGO IL     PTSUNNY   85  72  65 W9        30.02S HX  91
EAU CLAIRE WI  SUNNY     90  63  40 W6        30.01F HX  91
LA CROSSE WI   SUNNY     90  76  63 CALM      30.00F HX 101
$$

  *****  SOME NATIONAL WEATHER *****

CITY           SKY/WX    TMP DP  RH WIND       PRES   REMARKS
LA GUARDIA NY  MOSUNNY   95  68  41 SW8G21    29.84F HX  99
RALEIGH NC     PTSUNNY   91  74  57 W8        30.05F HX 100
ATLANTA GA     CLOUDY    90  70  51 VRB6      30.10F HX  95
NEW ORLEANS LA CLOUDY    80  73  79 E10       30.10F THUNDER
OKLAHOMA CITY  SUNNY     98  66  34 S10       30.06F HX 101
ALBUQUERQUE NM MOSUNNY   93  44  18 W6        30.28F
SALT LAKE CITY MOSUNNY   97  44  16 NE5G16    30.09F THUNDER HX  93
LOS ANGELES CA MOSUNNY   81  60  48 W13       29.94F
BOISE ID       SUNNY     85  45  24 N12G17    30.12F
SEATTLE WA     PTSUNNY   67  57  70 SW9       30.25R
$$

*** WEATHER ACROSS MANITOBA...SASKATCHEWAN AND ONTARIO ***
                ***ONTARIO***

CITY           SKY/WX    TMP DP  RH WIND       PRES   REMARKS
GERALDTON      MOSUNNY   79  59  50 W12G23    29.84R
THUNDER BAY    MOSUNNY   86  59  39 NW15G22   29.88S
SIOUX LOOKOUT  MOSUNNY   81  59  47 NW12G21   29.93S
TORONTO        MOSUNNY   95  57  28 NW17G28   29.85F HX  94
BIG TROUT LK   LGT RAIN  66  63  88 VRB3      29.77R
PICKLE LAKE    PTSUNNY   77  57  50 W17G26    29.84S
DRYDEN         MOSUNNY   82  57  42 W12G23    29.95S
KENORA         MOSUNNY   81  57  44 NW9G18    29.99S
$$
                *** MANITOBA***

CITY           SKY/WX    TMP DP  RH WIND       PRES   REMARKS
BRANDON        MOSUNNY   81  59  47 NW10      30.06F
DAUPHIN        SUNNY     81  57  44 W10       30.02F
ISLAND LAKE    MOSUNNY   73  55  53 W15G23    29.87R
PILOT MOUND      N/A     79  59  50 NW7         N/A
THE PAS        MOSUNNY   70  50  49 NW10      30.00S
THOMPSON       MOSUNNY   64  43  45 NW10G21   29.94S
WINNIPEG       MOSUNNY   79  63  57 NW13      30.02S
LYNN LAKE      MOSUNNY   61  39  44 MISG      29.97F
CHURCHILL      MOSUNNY   55  41  58 N16       29.85R
GILLAM         PTSUNNY   63  48  59 NW14      29.87R
$$
                ***SASKATCHEWAN***

CITY           SKY/WX    TMP DP  RH WIND       PRES   REMARKS
ESTEVAN        MOSUNNY   81  61  50 E13       30.04F
KINDERSLEY     PTSUNNY   73  59  60 E13       29.98F
LLOYDMINSTER   MOSUNNY   73  54  49 S7        29.98F
PRINCE ALBERT  MOSUNNY   73  54  49 VRB2      30.02F
REGINA         MOSUNNY   82  55  39 S10       30.04F
YORKTON        SUNNY     77  59  53 VRB5      30.05F
N. BATTLEFORD  SUNNY     73  55  53 E5        30.02F
LA RONGE       MOSUNNY   66  48  52 SW12      30.00F
SASKATOON      PTSUNNY   79  52  38 VRB3      30.03F
SWIFT CURRENT  SUNNY     79  55  44 SE18G25   30.00F
$$
NOTE: THESE ARE AUTOMATED STATIONS WITH LIMITED QUALITY CONTROL
      "FAIR" INDICATES FEW OR NO CLOUDS BELOW 12,000 FEET WITH NO
      SIGNIFICANT WEATHER AND/OR OBSTRUCTIONS TO VISIBILITY.
      SKY/WX - SKY CONDITION AND SIGNIFICANT WEATHER.
      TMP - AIR TEMPERATURE.    DP   - DEWPOINT TEMPERATURE.
      RH  - RELATIVE HUMIDITY.  PRES - PRESSURE.
      HX  - HEAT INDEX.         WCI  - WIND CHILL INDEX.
$




USA.gov is the U.S. government's official web portal to all federal, state and local government web resources and services.